GW6967 Weather Reports


time (UTC)temp
C
wind
direction
speed
KPH
gust
KPH
rain 1hr
cm
rain 24hr
cm
rain mn
cm
humidity
%
barometer
mb
20260508142050 11 42 12.9 0.0 0.00 2.13 0.00 86 1002.2
20260508141547 11 43 9.7 0.0 0.00 2.13 0.00 85 1002.2
20260508141045 11 35 6.4 0.0 0.00 2.13 0.00 84 1002.2
20260508140042 12 319 3.2 0.0 0.00 2.13 0.00 77 1002.2
20260508135542 12 324 3.2 0.0 0.00 2.13 0.00 81 1002.2
20260508135039 11 250 1.6 0.0 0.00 2.13 0.00 81 1002.2
20260508134538 11 314 1.6 0.0 0.00 2.13 0.00 79 1002.2
20260508134033 12 271 3.2 0.0 0.00 2.13 0.00 79 1002.2
20260508133531 12 248 4.8 0.0 0.00 2.16 0.00 77 1002.2
20260508133030 12 166 1.6 0.0 0.00 2.16 0.00 79 1002.2
20260508132529 12 283 1.6 0.0 0.00 2.16 0.00 75 1002.6
20260508132027 12 296 1.6 0.0 0.00 2.16 0.00 85 1002.6
20260508131526 12 32 0.0 0.0 0.00 2.16 0.00 89 1002.2
20260508131024 12 177 1.6 0.0 0.00 2.16 0.00 80 1002.6
20260508130523 11 25 3.2 0.0 0.00 2.16 0.00 87 1002.2
20260508125520 11 344 0.0 0.0 0.00 2.16 0.00 88 1002.6
20260508125019 11 298 0.0 0.0 0.00 2.16 0.00 90 1002.2
20260508124015 10 16 0.0 0.0 0.00 2.16 0.00 91 1002.6
20260508123514 10 3 0.0 0.0 0.00 2.16 0.00 91 1002.6
20260508123012 10 3 0.0 0.0 0.00 2.16 0.00 93 1002.6
20260508122511 10 215 1.6 0.0 0.00 2.16 0.00 90 1002.6
20260508122009 10 9 0.0 0.0 0.00 2.16 0.00 88 1002.6
20260508121508 11 38 0.0 0.0 0.00 2.16 0.00 91 1002.6
20260508121006 10 274 0.0 0.0 0.00 2.18 0.00 93 1002.6
20260508120505 10 272 1.6 0.0 0.00 2.18 0.00 94 1002.6
20260508120004 9 270 1.6 0.0 0.00 2.18 0.00 93 1002.6
20260508115502 10 357 0.0 0.0 0.00 2.18 0.00 98 1002.6
20260508114058 8 130 0.0 0.0 0.00 2.18 0.00 95 1002.6
20260508113055 8 44 0.0 0.0 0.00 2.18 0.00 95 1002.6
20260508112553 7 30 0.0 0.0 0.00 2.18 0.00 96 1002.6
20260508112051 7 307 0.0 0.0 0.00 2.18 0.00 98 1002.6
20260508111549 7 1 0.0 0.0 0.00 2.18 0.00 98 1002.6
20260508111048 7 308 3.2 0.0 0.00 2.18 0.00 99 1002.6
20260508110046 6 314 1.6 0.0 0.00 2.29 0.00 10 1002.6
20260508105543 6 344 0.0 0.0 0.00 2.29 0.00 10 1002.6
20260508105042 6 337 1.6 0.0 0.00 2.29 0.00 10 1002.6
20260508104541 6 319 0.0 0.0 0.00 2.29 0.00 10 1002.6
20260508104041 6 312 0.0 0.0 0.00 2.29 0.00 10 1002.6
20260508103540 6 308 0.0 0.0 0.00 2.29 0.00 10 1002.6
20260508103037 6 305 1.6 0.0 0.00 2.29 0.00 10 1002.6
20260508102536 6 316 0.0 0.0 0.00 2.29 0.00 10 1002.6
20260508102032 6 294 0.0 0.0 0.00 2.34 0.00 10 1002.6
20260508101530 6 342 0.0 0.0 0.00 2.34 0.00 10 1002.6
20260508101028 6 330 0.0 0.0 0.00 2.34 0.00 10 1002.9
20260508100528 6 305 0.0 0.0 0.00 2.34 0.00 10 1002.6
20260508100026 6 352 0.0 0.0 0.00 2.34 0.00 10 1002.6
20260508095525 6 344 0.0 0.0 0.00 2.34 0.00 10 1002.6
20260508095023 6 358 0.0 0.0 0.00 2.34 0.00 10 1002.6
20260508094522 6 354 0.0 0.0 0.00 2.34 0.00 10 1002.6
20260508094020 6 353 0.0 0.0 0.00 2.34 0.00 10 1002.6
20260508093519 6 350 0.0 0.0 0.00 2.34 0.00 10 1002.6
20260508093018 6 340 1.6 0.0 0.00 2.34 0.00 10 1002.6
20260508092516 6 357 0.0 0.0 0.00 2.34 0.00 10 1002.2
20260508092015 6 6 0.0 0.0 0.00 2.34 0.00 10 1002.2
20260508091513 6 354 0.0 0.0 0.00 2.34 0.00 10 1002.2
20260508091011 6 350 0.0 0.0 0.00 2.39 0.00 10 1002.2
20260508090509 6 328 0.0 0.0 0.00 2.44 0.00 10 1002.2
20260508090009 6 258 0.0 0.0 0.00 2.54 0.00 10 1002.2
20260508085506 6 262 0.0 0.0 0.00 2.54 0.00 10 1002.2
20260508085005 6 352 0.0 0.0 0.00 2.57 0.00 10 1002.2
20260508084503 6 359 0.0 0.0 0.00 2.59 0.00 10 1002.2
20260508084001 6 352 0.0 0.0 0.00 2.59 0.00 10 1002.2
20260508083100 6 7 0.0 0.0 0.00 2.59 0.00 10 1001.9
20260508082557 6 306 0.0 0.0 0.00 2.59 0.00 10 1002.2
20260508082056 6 274 0.0 0.0 0.00 2.59 0.00 10 1002.6
20260508081556 6 224 0.0 0.0 0.00 2.59 0.00 10 1002.6
20260508080552 6 163 0.0 0.0 0.00 2.59 0.00 10 1002.2
20260508080051 6 142 0.0 0.0 0.00 2.59 0.00 10 1002.2
20260508075549 6 211 0.0 0.0 0.00 2.59 0.00 10 1001.9
20260508075048 6 0 0.0 0.0 0.00 2.59 0.00 10 1001.9
20260508074545 6 304 1.6 0.0 0.00 2.59 0.00 10 1001.9
20260508074044 6 343 0.0 0.0 0.00 2.59 0.00 10 1001.9
20260508073543 6 59 0.0 0.0 0.00 2.59 0.00 10 1001.9
20260508073041 6 75 1.6 0.0 0.00 2.59 0.00 10 1002.2
20260508072540 5 359 0.0 0.0 0.00 2.59 0.00 10 1002.2
20260508072037 5 351 0.0 0.0 0.00 2.59 0.00 10 1002.2
20260508071031 6 355 0.0 0.0 0.00 2.59 0.00 10 1002.2
20260508070529 6 358 0.0 0.0 0.00 2.59 0.00 10 1001.9
20260508065024 6 5 0.0 0.0 0.00 2.59 0.00 10 1001.9
20260508064523 6 12 0.0 0.0 0.00 2.59 0.00 10 1001.9
20260508064021 6 356 0.0 0.0 0.00 2.59 0.00 10 1002.2
20260508063520 6 6 0.0 0.0 0.00 2.59 0.00 10 1002.2
20260508063018 6 64 0.0 0.0 0.00 2.59 0.00 99 1002.2
20260508062015 6 314 1.6 0.0 0.00 2.59 0.00 99 1001.9
20260508061514 6 351 0.0 0.0 0.00 2.59 0.00 99 1002.2
20260508060511 7 10 0.0 0.0 0.00 2.59 0.00 99 1001.9
20260508060010 7 20 0.0 0.0 0.00 2.59 0.00 10 1002.2
20260508055509 7 120 0.0 0.0 0.00 2.59 0.00 10 1002.2
20260508055007 7 159 0.0 0.0 0.00 2.59 0.00 99 1002.2
20260508054003 7 345 0.0 0.0 0.00 2.59 0.00 99 1002.2
20260508053000 7 217 0.0 0.0 0.00 2.59 0.00 99 1002.2
20260508052559 7 319 0.0 0.0 0.00 2.59 0.00 99 1002.2
20260508052058 7 271 0.0 0.0 0.00 2.59 0.00 99 1002.6
20260508051558 7 243 0.0 0.0 0.00 2.59 0.00 99 1002.6
20260508050554 7 5 0.0 0.0 0.00 2.59 0.00 99 1002.6
20260508050053 7 223 0.0 0.0 0.00 2.59 0.00 99 1002.6
20260508045052 7 195 0.0 0.0 0.00 2.59 0.00 99 1002.2
20260508044549 7 319 0.0 0.0 0.00 2.59 0.00 99 1002.2
20260508043541 8 130 0.0 0.0 0.00 2.59 0.00 99 1002.2
20260508043041 8 322 0.0 0.0 0.00 2.59 0.00 99 1002.2
20260508042038 8 126 0.0 0.0 0.00 2.59 0.00 99 1002.2
20260508041534 8 320 0.0 0.0 0.00 2.59 0.00 99 1002.6
20260508041032 8 334 0.0 0.0 0.00 2.59 0.00 99 1002.2
20260508040530 8 351 0.0 0.0 0.00 2.59 0.00 99 1002.2
20260508040029 8 353 0.0 0.0 0.00 2.59 0.00 99 1002.6
20260508035527 8 15 0.0 0.0 0.00 2.59 0.00 99 1002.6
20260508035026 8 30 0.0 0.0 0.00 2.59 0.00 99 1002.6
20260508034524 8 1 0.0 0.0 0.00 2.59 0.00 99 1002.6
20260508034023 8 356 0.0 0.0 0.00 2.59 0.00 99 1002.6
20260508033521 8 2 0.0 0.0 0.00 2.59 0.00 99 1002.6
20260508032519 8 288 1.6 0.0 0.00 2.59 0.00 99 1002.6
20260508032018 8 311 0.0 0.0 0.00 2.59 0.00 99 1002.6
20260508031517 8 292 0.0 0.0 0.00 2.59 0.00 98 1002.6
20260508031015 8 340 0.0 0.0 0.00 2.59 0.00 98 1002.6
20260508030514 8 223 0.0 0.0 0.00 2.59 0.00 98 1002.6
20260508030013 8 255 0.0 0.0 0.00 2.59 0.00 98 1002.6
20260508025511 8 297 0.0 0.0 0.00 2.59 0.00 98 1002.6
20260508025010 8 6 0.0 0.0 0.00 2.59 0.00 98 1002.6
20260508024508 8 342 0.0 0.0 0.00 2.59 0.00 98 1002.6
20260508024006 8 358 0.0 0.0 0.00 2.59 0.00 98 1002.6
20260508023505 8 351 0.0 0.0 0.00 2.59 0.00 97 1002.6
20260508023004 8 353 0.0 0.0 0.00 2.59 0.00 97 1002.6
20260508021055 9 353 0.0 0.0 0.00 2.59 0.00 97 1002.9
20260508020554 9 334 0.0 0.0 0.00 2.59 0.00 97 1002.9
20260508015553 9 336 0.0 0.0 0.00 2.59 0.00 97 1002.6
20260508015050 9 320 0.0 0.0 0.00 2.59 0.00 97 1002.9
20260508014549 9 320 0.0 0.0 0.00 2.59 0.00 97 1002.9
20260508014047 9 280 0.0 0.0 0.00 2.59 0.00 97 1002.9
20260508013545 9 253 1.6 0.0 0.00 2.59 0.00 97 1002.9
20260508012542 9 92 0.0 0.0 0.00 2.59 0.00 97 1002.6
20260508012041 9 327 0.0 0.0 0.00 2.59 0.00 97 1002.6
20260508011539 9 352 0.0 0.0 0.00 2.59 0.00 97 1002.6
20260508011038 9 316 0.0 0.0 0.00 2.59 0.00 97 1002.9
20260508010537 9 22 0.0 0.0 0.00 2.59 0.00 97 1002.9
20260508010036 9 173 1.6 0.0 0.00 2.59 0.00 97 1002.9
20260508005533 9 294 1.6 0.0 0.00 2.59 0.00 97 1002.6
20260508005032 9 212 1.6 0.0 0.00 2.59 0.00 97 1002.2
20260508004530 9 307 0.0 0.0 0.00 2.59 0.00 97 1002.2
20260508003026 10 153 1.6 0.0 0.00 2.59 0.00 96 1002.2
20260508002524 10 173 3.2 0.0 0.00 2.59 0.00 96 1002.2
20260508002023 10 151 1.6 0.0 0.00 2.59 0.00 96 1002.2
20260508001521 10 183 3.2 0.0 0.00 2.59 0.00 96 1002.2
20260508001020 10 226 3.2 0.0 0.00 2.59 0.00 96 1002.2
20260508000518 10 179 1.6 0.0 0.00 2.59 0.00 96 1002.2
20260508000017 10 197 4.8 0.0 0.00 2.59 0.00 96 1002.2
20260507235514 10 16 3.2 0.0 0.00 2.59 0.00 96 1002.2
20260507235013 10 224 0.0 0.0 0.00 2.59 0.00 96 1002.2
20260507234510 10 184 3.2 0.0 0.00 2.59 0.00 96 1002.2
20260507234008 10 93 0.0 0.0 0.00 2.59 0.00 95 1002.2
20260507233506 10 217 1.6 0.0 0.00 2.59 0.00 95 1001.9
20260507233004 10 164 1.6 0.0 0.00 2.59 0.00 95 1002.2
20260507232501 11 196 3.2 0.0 0.00 2.59 0.00 95 1002.2
20260507232059 11 180 3.2 0.0 0.00 2.59 0.00 95 1001.9
20260507231558 11 233 1.6 0.0 0.00 2.59 0.00 94 1001.9
20260507231054 11 281 1.6 0.0 0.00 2.74 0.00 94 1001.9
20260507230553 11 243 1.6 0.0 0.00 2.74 0.00 94 1001.9
20260507230051 11 269 4.8 0.0 0.00 2.74 0.00 94 1001.9
20260507225549 11 218 3.2 0.0 0.00 2.74 0.00 95 1001.9
20260507225046 11 230 3.2 0.0 0.00 2.82 0.00 96 1001.9
20260507224542 11 243 4.8 0.0 0.00 2.82 0.00 96 1002.2
20260507224041 11 295 1.6 0.0 0.00 2.82 0.00 97 1002.2
20260507223534 11 243 4.8 0.0 0.00 2.82 0.00 97 1002.2
20260507223032 11 277 3.2 0.0 0.00 2.82 0.00 97 1002.2
20260507222028 11 113 1.6 0.0 0.00 2.82 0.00 97 1001.9
20260507221526 11 238 3.2 0.0 0.00 2.82 0.00 97 1001.9
20260507221024 11 206 1.6 0.0 0.00 2.82 0.00 97 1001.9
20260507220522 11 225 4.8 0.0 0.00 2.82 0.00 96 1001.9
20260507220019 11 234 4.8 0.0 0.03 2.82 0.00 97 1001.9
20260507215518 11 258 6.4 0.0 0.03 2.82 0.00 97 1001.9
20260507215017 11 270 8.0 0.0 0.03 2.82 0.00 97 1001.9
20260507214515 11 294 1.6 0.0 0.03 2.82 0.00 97 1001.9
20260507214014 11 211 3.2 0.0 0.03 2.87 0.00 97 1001.9
20260507213513 11 269 9.7 0.0 0.05 2.87 0.00 97 1001.9
20260507213012 11 280 1.6 0.0 0.05 2.87 0.00 97 1002.2
20260507212510 11 276 3.2 0.0 0.05 2.87 0.00 97 1001.9
20260507212008 12 258 8.0 0.0 0.05 2.90 0.00 97 1001.9
20260507211004 12 168 3.2 0.0 0.05 3.00 0.00 98 1001.9
20260507210502 12 212 3.2 0.0 0.05 3.00 0.00 98 1001.9
20260507210000 12 254 4.8 0.0 0.03 2.97 0.00 98 1001.9
20260507205057 12 189 3.2 0.0 0.03 3.00 0.00 97 1001.9
20260507204053 12 234 3.2 0.0 0.03 3.00 0.00 97 1001.9
20260507203550 12 5 3.2 0.0 0.00 2.97 0.00 97 1001.6
20260507202042 12 268 6.4 0.0 0.00 2.97 0.00 96 1001.6
20260507201541 12 206 3.2 0.0 0.00 2.97 0.00 95 1001.6
20260507200031 13 271 3.2 0.0 0.00 2.97 0.00 95 1001.2
20260507195529 12 183 1.6 0.0 0.00 2.97 0.00 95 1001.2
20260507195026 12 173 4.8 0.0 0.00 2.97 0.00 94 1001.2
20260507194524 12 205 6.4 0.0 0.00 2.97 0.00 94 1001.2
20260507193521 13 68 1.6 0.0 0.00 2.97 0.00 95 1001.2
20260507193019 13 356 1.6 0.0 0.03 2.97 0.00 95 1001.2
20260507192015 13 241 1.6 0.0 0.05 2.97 0.00 95 1001.2
20260507191514 13 86 1.6 0.0 0.05 2.97 0.00 95 1001.2
20260507191011 12 281 0.0 0.0 0.05 2.97 0.00 96 1001.2
20260507190510 12 156 4.8 0.0 0.08 2.97 0.00 96 1001.6
20260507185508 12 217 4.8 0.0 0.10 2.97 0.00 97 1000.9
20260507185006 12 213 6.4 0.0 0.13 2.97 0.00 97 1000.5
20260507184505 12 307 3.2 0.0 0.15 2.97 0.00 98 1000.2
20260507184002 12 346 1.6 0.0 0.15 2.97 0.00 99 999.2
20260507183501 11 81 3.2 0.0 0.18 2.97 0.00 99 999.9
20260507182558 11 323 4.8 0.0 0.13 2.92 0.00 99 1001.2
20260507182057 11 30 3.2 0.0 0.13 2.92 0.00 99 1001.2
20260507181555 11 41 4.8 0.0 0.15 2.92 0.00 98 1001.9
20260507180552 11 113 3.2 0.0 0.20 2.92 0.00 98 1001.9
20260507175550 11 39 4.8 0.0 0.25 2.87 0.00 98 1001.9
20260507175048 11 352 3.2 0.0 0.28 2.87 0.00 98 1001.9
20260507174547 11 317 3.2 0.0 0.28 2.82 0.00 98 1001.9
20260507174045 11 356 3.2 0.0 0.36 2.82 0.00 98 1002.2
20260507173544 11 2 4.8 0.0 0.41 2.79 0.00 98 1002.6
20260507173041 11 23 3.2 0.0 0.48 2.79 0.00 98 1002.2
20260507172540 11 334 0.0 0.0 0.53 2.79 0.00 98 1002.2
20260507172035 11 25 3.2 0.0 0.58 2.79 0.00 98 1002.2
20260507171031 11 10 4.8 0.0 0.74 2.77 0.00 98 1002.9
20260507170528 11 323 4.8 0.0 0.81 2.72 0.00 98 1003.6
20260507165524 11 129 4.8 0.0 0.91 2.62 0.00 98 1003.6
20260507165022 11 48 4.8 0.0 0.97 2.59 0.00 98 1003.3
20260507164520 12 117 1.6 0.0 1.04 2.54 0.00 98 1003.3
20260507164017 12 83 3.2 0.0 1.14 2.46 0.00 98 1003.9
20260507163514 12 263 1.6 0.0 1.14 2.39 0.00 98 1003.6
20260507162008 12 274 4.8 0.0 1.27 2.21 0.00 98 1003.9
20260507161506 12 113 4.8 0.0 1.17 2.11 0.00 98 1004.3
20260507160501 12 215 6.4 0.0 1.02 1.91 0.00 98 1003.9
20260507155559 12 188 4.8 0.0 0.81 1.70 0.00 98 1003.9
20260507154554 12 157 1.6 0.0 0.66 1.55 0.00 98 1004.3
20260507154052 12 73 3.2 0.0 0.46 1.35 0.00 98 1004.3
20260507153048 12 167 6.4 0.0 0.28 1.17 0.00 97 1004.3
20260507152545 13 199 9.7 0.0 0.10 0.99 0.00 96 1003.9
20260507151543 13 166 8.0 0.0 0.05 0.94 0.00 96 1003.9
20260507151042 13 187 4.8 0.0 0.05 0.94 0.00 95 1003.9
20260507150540 13 339 11.3 0.0 0.00 0.89 0.00 94 1003.9
20260507150038 13 53 8.0 0.0 0.00 0.89 0.00 94 1003.9
20260507145533 13 203 6.4 0.0 0.00 0.89 0.00 93 1003.9
20260507145032 13 63 8.0 0.0 0.00 0.89 0.00 92 1003.9
20260507144530 13 32 3.2 0.0 0.00 0.89 0.00 91 1003.9
20260507144029 13 10 8.0 0.0 0.00 0.89 0.00 91 1004.3
20260507143528 13 61 16.1 0.0 0.03 0.89 0.00 91 1004.3
20260507142524 13 277 8.0 0.0 0.03 0.89 0.00 90 1004.3